Creede, CO

6:55 AM MST on February 26, 2017 (GMT -0700)
Wolf Creek Pass

Weather History for KCPW - July, 2013

Change the Weather History Date:

Monday, July 15, 2013

  Actual Average (KE33) Record (KE33)
Temperature  
Mean Temperature 47 °F -  
Max Temperature 53 °F 74 °F 89 °F (2010)
Min Temperature 41 °F 54 °F 50 °F (2002)
Degree Days  
Heating Degree Days 18    
Moisture  
Dew Point 44 °F    
Average Humidity 94    
Maximum Humidity 100    
Minimum Humidity 71    
Precipitation  
Precipitation 0.07 in - - ()
Sea Level Pressure  
Sea Level Pressure 30.58 in    
Wind  
Wind Speed - (North)    
Max Wind Speed -    
Max Gust Speed -    
Visibility 6 miles    
Events Fog , Rain , Thunderstorm    
Averages and records for this station are not official NWS values.
T = Trace of Precipitation, MM = Missing Value Source: NWS Daily Summary

Daily Weather History Graph

Daily Weather History Graph

Search for Another Location

Airport or City:

Trip Planner

Search our weather history database for the weather conditions in past years. The results will help you decide how hot, cold, wet, or windy it might be!

Date:

Astronomy

Jul. 15, 2013 Rise Set
Actual Time 5:58 AM MDT 8:27 PM MDT
Civil Twilight 5:28 AM MDT 8:57 PM MDT
Nautical Twilight 4:50 AM MDT 9:35 PM MDT
Astronomical Twilight 4:09 AM MDT 10:16 PM MDT
Moon 1:10 PM MDT (7/15) No Moon Set
Length of Visible Light 15h 29m
Length of Day
14h 29m
Waxing Crescent, 46% of the Moon is Illuminated
Jul 15
Waxing Crescent
Jul 15
First Quarter
Jul 22
Full
Jul 29
Last Quarter
Aug 6
New

Hourly Weather History & Observations

Time (MDT) Temp. Dew Point Humidity Pressure Visibility Wind Dir Wind Speed Gust Speed Precip Events Conditions
12:18 AM 42.8 °F 42.8 °F 100% 30.61 in 10.0 mi North - - N/A   Mostly Cloudy
12:38 AM 42.8 °F 42.8 °F 100% 30.61 in 10.0 mi North - - N/A Thunderstorm Overcast
12:58 AM 42.8 °F 42.8 °F 100% 30.61 in 10.0 mi North - - N/A   Overcast
1:18 AM 42.8 °F 42.8 °F 100% 30.62 in 10.0 mi North - - N/A   Overcast
1:38 AM 42.8 °F 42.8 °F 100% 30.62 in 10.0 mi North - - N/A   Overcast
1:58 AM 42.8 °F 42.8 °F 100% 30.62 in 10.0 mi North - - N/A   Overcast
2:18 AM 42.8 °F 42.8 °F 100% 30.62 in 10.0 mi North - - N/A   Light Drizzle
2:38 AM 42.8 °F 42.8 °F 100% 30.63 in 1.2 mi North - - N/A   Drizzle
2:58 AM 42.8 °F 42.8 °F 100% 30.62 in 0.2 mi North - - N/A Rain Rain
3:18 AM 42.8 °F 42.8 °F 100% 30.61 in 0.2 mi North - - N/A Fog Fog
3:38 AM 42.8 °F 42.8 °F 100% 30.60 in 0.2 mi North - - N/A Fog Fog
3:58 AM 42.8 °F 42.8 °F 100% 30.59 in 0.2 mi North - - N/A Fog Fog
4:18 AM 42.8 °F 42.8 °F 100% 30.59 in 10.0 mi North - - N/A   Scattered Clouds
4:38 AM 42.8 °F 42.8 °F 100% 30.59 in 10.0 mi North - - N/A   Clear
4:58 AM 42.8 °F 42.8 °F 100% 30.59 in 10.0 mi North - - N/A   Scattered Clouds
5:18 AM 42.8 °F 42.8 °F 100% 30.59 in 0.2 mi North - - N/A Fog Fog
5:38 AM 42.8 °F 42.8 °F 100% 30.59 in 0.2 mi North - - N/A Fog Fog
5:58 AM 42.8 °F 42.8 °F 100% 30.58 in 0.2 mi North - - N/A Fog Fog
6:18 AM 42.8 °F 42.8 °F 100% 30.57 in 0.2 mi North - - N/A Fog Fog
6:38 AM 42.8 °F 42.8 °F 100% 30.57 in 0.2 mi North - - N/A Fog Fog
6:58 AM 42.8 °F 42.8 °F 100% 30.57 in 0.2 mi North - - N/A Fog Fog
7:18 AM 42.8 °F 42.8 °F 100% 30.58 in 0.2 mi North - - N/A Fog Fog
7:38 AM 44.6 °F 44.6 °F 100% 30.59 in 2.0 mi North - - N/A   Overcast
7:58 AM 42.8 °F 42.8 °F 100% 30.59 in 0.2 mi North - - N/A Fog Fog
8:18 AM 44.6 °F 42.8 °F 93% 30.59 in 10.0 mi North - - N/A   Mostly Cloudy
8:38 AM 44.6 °F 44.6 °F 100% 30.59 in 10.0 mi North - - N/A   Mostly Cloudy
8:58 AM 44.6 °F 42.8 °F 93% 30.59 in 10.0 mi North - - N/A   Mostly Cloudy
9:18 AM 44.6 °F 42.8 °F 93% 30.59 in 10.0 mi North - - N/A   Overcast
9:38 AM 50.0 °F 44.6 °F 82% 30.59 in 10.0 mi North - - N/A   Mostly Cloudy
9:58 AM 51.8 °F 44.6 °F 76% 30.59 in 10.0 mi North - - N/A   Mostly Cloudy
10:18 AM 48.2 °F 44.6 °F 87% 30.59 in 10.0 mi North - - N/A   Mostly Cloudy
10:38 AM 50.0 °F 44.6 °F 82% 30.60 in 10.0 mi North - - N/A   Overcast
10:58 AM 53.6 °F 44.6 °F 72% 30.61 in 10.0 mi North - - N/A   Mostly Cloudy
11:18 AM 50.0 °F 44.6 °F 82% 30.61 in 10.0 mi North - - N/A   Overcast
11:38 AM 50.0 °F 42.8 °F 76% 30.60 in 10.0 mi North - - N/A   Overcast
11:58 AM 50.0 °F 42.8 °F 76% 30.61 in 10.0 mi North - - N/A   Overcast
12:18 PM 48.2 °F 42.8 °F 82% 30.59 in 10.0 mi North - - N/A   Overcast
12:38 PM 50.0 °F 44.6 °F 82% 30.59 in 10.0 mi North - - N/A Thunderstorm Overcast
12:58 PM 51.8 °F 42.8 °F 71% 30.59 in 10.0 mi North - - N/A Thunderstorm Overcast
1:18 PM 48.2 °F 44.6 °F 87% 30.59 in 10.0 mi North - - N/A   Overcast
1:38 PM 50.0 °F 42.8 °F 76% 30.57 in 10.0 mi North - - N/A   Overcast
1:58 PM 51.8 °F 44.6 °F 76% 30.56 in 10.0 mi North - - N/A Thunderstorm Overcast
2:18 PM 50.0 °F 44.6 °F 82% 30.57 in 10.0 mi North - - N/A   Light Drizzle
2:38 PM 46.4 °F 42.8 °F 87% 30.57 in 10.0 mi North - - N/A Thunderstorm Overcast
2:58 PM 48.2 °F 44.6 °F 87% 30.57 in 10.0 mi North - - N/A Rain Light Rain
3:18 PM 50.0 °F 46.4 °F 87% 30.56 in 10.0 mi North - - N/A   Light Drizzle
3:38 PM 48.2 °F 44.6 °F 87% 30.56 in 10.0 mi North - - N/A   Light Drizzle
3:58 PM 51.8 °F 44.6 °F 76% 30.55 in 10.0 mi North - - N/A Thunderstorm Mostly Cloudy
4:18 PM 46.4 °F 46.4 °F 100% 30.56 in 2.0 mi North - - 0.04 in Rain Light Rain
4:38 PM 46.4 °F 44.6 °F 93% 30.55 in 10.0 mi North - - 0.04 in   Overcast
4:58 PM 46.4 °F 44.6 °F 93% 30.56 in 10.0 mi North - - 0.04 in Thunderstorm Overcast
5:18 PM 46.4 °F 44.6 °F 93% 30.55 in 7.0 mi North - - 0.01 in Rain , Thunderstorm Light Thunderstorms and Rain
5:38 PM 46.4 °F 44.6 °F 93% 30.54 in 7.0 mi North - - 0.02 in Rain Rain
5:58 PM 46.4 °F 46.4 °F 100% 30.55 in 0.2 mi North - - 0.03 in Rain , Thunderstorm Light Thunderstorms and Rain
6:18 PM 44.6 °F 44.6 °F 100% 30.55 in 10.0 mi North - - N/A   Overcast
6:38 PM 44.6 °F 44.6 °F 100% 30.55 in 10.0 mi North - - N/A   Overcast
6:58 PM 44.6 °F 44.6 °F 100% 30.55 in 10.0 mi North - - N/A Thunderstorm Overcast
7:18 PM 44.6 °F 44.6 °F 100% 30.55 in 10.0 mi North - - N/A   Overcast
7:38 PM 44.6 °F 44.6 °F 100% 30.56 in 0.2 mi North - - N/A Fog Fog
7:58 PM 44.6 °F 44.6 °F 100% 30.56 in 0.2 mi North - - N/A Fog , Thunderstorm Fog
8:18 PM 44.6 °F 44.6 °F 100% 30.56 in 0.2 mi North - - N/A Fog , Thunderstorm Fog
8:38 PM 44.6 °F 44.6 °F 100% 30.56 in 0.2 mi North - - N/A Rain Light Rain
8:58 PM 44.6 °F 44.6 °F 100% 30.57 in 0.2 mi North - - N/A   Unknown
9:18 PM 44.6 °F 44.6 °F 100% 30.57 in 0.2 mi North - - N/A   Light Drizzle
9:38 PM 44.6 °F 44.6 °F 100% 30.57 in 0.2 mi North - - N/A Rain Light Rain
9:58 PM 44.6 °F 44.6 °F 100% 30.58 in 0.2 mi North - - N/A Rain Light Rain
10:18 PM 44.6 °F 44.6 °F 100% 30.59 in 0.2 mi North - - N/A   Drizzle
10:38 PM 42.8 °F 42.8 °F 100% 30.59 in 0.2 mi North - - N/A Rain Rain
10:58 PM 42.8 °F 42.8 °F 100% 30.59 in 0.2 mi North - - N/A   Unknown
11:18 PM 41.0 °F 41.0 °F 100% 30.59 in 0.2 mi North - - N/A Fog Fog
11:38 PM 41.0 °F 41.0 °F 100% 30.59 in 0.2 mi North - - N/A Fog Fog
11:58 PM 41.0 °F 41.0 °F 100% 30.59 in 0.2 mi North - - N/A Fog Fog